Location: Slanting_Bridge
(35.6330°N, 80.9830°W)
Time: 16:44:16
(UTC-04:00)

Amateur Radio Satellites - All Passes

Search period start: 18 April 2014 16:14
Search period end: 19 April 2014 16:14
Location: Slanting_Bridge, 35.6330°N, 80.9830°W

Satellite Date Start Highest point End Downlink Frequencies (MHz)
Time Altitude Azimuth
ITAMSAT 1 18 Apr 16:18:05 16:20:02 12° 268° (W) 16:21:58 435.822 SSB
SO-50 18 Apr 16:22:06 16:26:34 86° 119° (ESE) 16:31:05 436.795 FM
ISS 18 Apr 16:35:13 16:38:25 42° 322° (NW) 16:41:38 145.800 FM
TMSAT-1 18 Apr 16:38:40 16:43:31 37° 262° (W) 16:48:25 436.925 FM
JAS-1B 18 Apr 16:47:37 16:56:10 75° 257° (WSW) 17:03:16 435.800 - 435.900 CW/SSB
Uosat F 18 Apr 16:50:00 16:55:02 77° 257° (WSW) 17:00:04 435.120 FM
UOSAT-12 18 Apr 17:13:39 17:15:50 13° 107° (ESE) 17:18:02 437.025 FM, 437.400 FM
OPAL 18 Apr 17:42:23 17:45:12 15° 299° (WNW) 17:48:01 ?
AO-7 18 Apr 17:48:59 17:56:54 49° 258° (WSW) 18:04:52 29.400 - 29.500 MHz
RS-15 18 Apr 17:58:37 18:09:18 60° 248° (WSW) 18:20:20 29.354 - 29.394 USB, Beacon 29.352 USB
SO-50 18 Apr 18:06:28 18:07:46 11° 316° (NW) 18:09:03 436.795 FM
Hamsat 18 Apr 18:41:00 18:45:05 55° 75° (ENE) 18:49:14 145.90 MHz
JAS-1B 18 Apr 18:45:58 18:47:11 10° 268° (W) 18:48:22 435.800 - 435.900 CW/SSB
UOSAT-12 18 Apr 18:51:01 18:55:27 54° 303° (WNW) 19:00:00 437.025 FM, 437.400 FM
SO-67 18 Apr 19:12:27 19:14:53 18° 71° (ENE) 19:17:19 435.3500 MHz FM
JAS-2 18 Apr 19:33:44 19:39:43 66° 75° (ENE) 19:45:07 435.800 - 435.900 CW/SSB, 435.910 FM
STRAND 1 18 Apr 20:16:56 20:22:03 79° 285° (WNW) 20:27:07 ?
SO-67 18 Apr 20:45:15 20:47:53 20° 265° (W) 20:50:33 435.3500 MHz FM
Saudisat 1A 18 Apr 20:49:04 20:53:21 49° 57° (ENE) 20:57:34 436.775 MHz
HO-68 18 Apr 21:21:03 21:27:58 57° 70° (ENE) 21:34:56 435.675 MHz FM
JAS-2 18 Apr 21:22:14 21:25:04 14° 266° (W) 21:27:47 435.800 - 435.900 CW/SSB, 435.910 FM
ISS 18 Apr 21:31:29 21:32:19 11° 22° (NNE) 21:33:09 145.800 FM
Oscar 11 18 Apr 21:49:51 21:53:34 29° 71° (ENE) 21:57:19 145.825 FM, Beacon 2401.500 USB
MaSat-1 18 Apr 22:08:08 22:11:16 64° 112° (ESE) 22:13:58 437.345 MHz
Saudisat 1A 18 Apr 22:30:16 22:32:29 14° 252° (WSW) 22:34:42 436.775 MHz
ISS 18 Apr 23:06:21 23:09:40 58° 40° (NE) 23:12:58 145.800 FM
HO-68 18 Apr 23:10:31 23:15:58 23° 265° (W) 23:21:28 435.675 MHz FM
FUNcube-1 18 Apr 23:13:05 23:17:19 83° 77° (ENE) 23:21:31 145.950 - 145.970 MHz USB
Oscar 11 18 Apr 23:26:37 23:29:45 20° 265° (W) 23:32:55 145.825 FM, Beacon 2401.500 USB
PCSat 18 Apr 23:56:07 23:58:35 13° 103° (ESE) 00:01:02 145.825 MHz
ISS 19 Apr 00:44:55 00:46:01 11° 234° (SW) 00:47:08 145.800 FM
Sapphire 19 Apr 00:51:21 00:56:25 44° 111° (ESE) 01:01:32 437.095 MHz 1200 baud AX-25 AFSK
SO-50 19 Apr 00:56:42 01:00:58 34° 54° (NE) 01:05:16 436.795 FM
PCSat 19 Apr 01:35:58 01:41:20 68° 298° (WNW) 01:46:44 145.825 MHz
KITSAT 1 19 Apr 02:08:11 02:13:52 21° 103° (ESE) 02:19:33 435.175 FM
Oscar 10/S400 19 Apr 02:26:04 02:42:50 30° 135° (SE) 03:19:05 145.825 - 145.975 CW/USB, Beacon 145.810 USB
Sapphire 19 Apr 02:35:42 02:40:00 24° 307° (NW) 02:44:21 437.095 MHz 1200 baud AX-25 AFSK
SO-50 19 Apr 02:37:40 02:41:20 23° 249° (WSW) 02:45:02 436.795 FM
AO-27 19 Apr 02:40:47 02:44:55 24° 96° (E) 02:49:03 436.795 MHz FM
ITAMSAT 1 19 Apr 02:51:21 02:55:53 30° 97° (E) 03:00:22 435.822 SSB
Oscar 19 19 Apr 02:57:08 03:02:21 71° 102° (ESE) 03:07:31 437.125 CW, 437.150 USB
AO-Echo 19 Apr 03:04:48 03:09:01 31° 97° (E) 03:13:09 ?
Oscar 16 19 Apr 03:05:18 03:10:31 89° 286° (WNW) 03:15:43 437.025 USB, Beacon 2401.1428
OPAL 19 Apr 03:13:51 03:18:51 81° 74° (ENE) 03:23:56 ?
TMSAT-1 19 Apr 03:20:28 03:21:56 11° 91° (E) 03:23:23 436.925 FM
UOSAT-12 19 Apr 03:23:18 03:27:57 56° 58° (ENE) 03:32:33 437.025 FM, 437.400 FM
AO-40 19 Apr 03:26:17 09:23:58 42° 182° (S) 15:00:12 Beacon 2401.320
Uribyol 2 19 Apr 03:39:26 03:44:38 83° 284° (WNW) 03:49:48 436.500 FM
KITSAT 1 19 Apr 04:00:21 04:08:26 72° 299° (WNW) 04:16:34 435.175 FM
Gurwin Techsat 1B 19 Apr 04:08:31 04:13:43 53° 100° (E) 04:18:53 435.225 FM
AO-27 19 Apr 04:19:48 04:24:27 35° 290° (WNW) 04:29:05 436.795 MHz FM
ITAMSAT 1 19 Apr 04:30:54 04:35:15 28° 292° (WNW) 04:39:35 435.822 SSB
JAS-1B 19 Apr 04:36:43 04:41:41 31° 98° (E) 04:46:53 435.800 - 435.900 CW/SSB
Oscar 19 19 Apr 04:38:47 04:41:02 13° 297° (WNW) 04:43:18 437.125 CW, 437.150 USB
AO-Echo 19 Apr 04:43:55 04:47:36 23° 292° (WNW) 04:51:15 ?
TMSAT-1 19 Apr 04:57:02 05:02:20 74° 285° (WNW) 05:07:35 436.925 FM
Uosat F 19 Apr 05:00:57 05:05:41 41° 99° (E) 05:10:22 435.120 FM
UOSAT-12 19 Apr 05:05:13 05:07:36 14° 252° (WSW) 05:09:58 437.025 FM, 437.400 FM
Gurwin Techsat 1B 19 Apr 05:49:51 05:53:13 17° 295° (WNW) 05:56:34 435.225 FM
AO-7 19 Apr 05:53:19 06:01:37 71° 105° (ESE) 06:09:55 29.400 - 29.500 MHz
STRAND 1 19 Apr 05:54:42 05:56:30 12° 62° (ENE) 05:58:19 ?
KITSAT 1 19 Apr 06:00:25 06:05:20 17° 321° (NW) 06:10:17 435.175 FM
RS-15 19 Apr 06:07:56 06:17:06 29° 104° (ESE) 06:25:57 29.354 - 29.394 USB, Beacon 29.352 USB
JAS-1B 19 Apr 06:27:32 06:32:19 29° 292° (WNW) 06:37:15 435.800 - 435.900 CW/SSB
Hamsat 19 Apr 06:31:34 06:33:37 13° 92° (E) 06:35:39 145.90 MHz
Uosat F 19 Apr 06:40:36 06:44:08 20° 294° (WNW) 06:47:40 435.120 FM
STRAND 1 19 Apr 07:29:55 07:35:01 75° 257° (WSW) 07:40:09 ?
AO-7 19 Apr 07:47:24 07:53:39 25° 302° (WNW) 07:59:54 29.400 - 29.500 MHz
Hamsat 19 Apr 08:05:38 08:09:48 45° 286° (WNW) 08:13:57 145.90 MHz
MaSat-1 19 Apr 08:11:53 08:14:58 75° 247° (WSW) 08:18:41 437.345 MHz
SO-67 19 Apr 08:11:58 08:15:08 31° 97° (E) 08:18:17 435.3500 MHz FM
RS-15 19 Apr 08:17:13 08:28:32 69° 302° (WNW) 08:39:31 29.354 - 29.394 USB, Beacon 29.352 USB
JAS-2 19 Apr 08:29:35 08:35:02 76° 103° (ESE) 08:41:05 435.800 - 435.900 CW/SSB, 435.910 FM
PANSAT 19 Apr 08:37:55 08:39:49 13° 161° (SSE) 08:41:43 not established
HO-68 19 Apr 08:57:07 08:57:47 10° 89° (E) 08:58:28 435.675 MHz FM
Sapphire 19 Apr 09:42:51 09:46:51 21° 51° (NE) 09:50:50 437.095 MHz 1200 baud AX-25 AFSK
SO-67 19 Apr 09:46:36 09:47:58 12° 291° (WNW) 09:49:19 435.3500 MHz FM
PANSAT 19 Apr 10:16:16 10:19:30 25° 173° (S) 10:22:43 not established
JAS-2 19 Apr 10:17:23 10:19:38 13° 296° (WNW) 10:21:56 435.800 - 435.900 CW/SSB, 435.910 FM
PCSat 19 Apr 10:26:55 10:32:12 50° 60° (ENE) 10:37:27 145.825 MHz
RS-15 19 Apr 10:35:38 10:43:21 21° 329° (NNW) 10:51:00 29.354 - 29.394 USB, Beacon 29.352 USB
HO-68 19 Apr 10:39:11 10:46:24 78° 105° (ESE) 10:53:35 435.675 MHz FM
Saudisat 1A 19 Apr 10:53:25 10:57:07 26° 112° (ESE) 11:00:50 436.775 MHz
FUNcube-1 19 Apr 11:05:59 11:09:07 20° 95° (E) 11:12:17 145.950 - 145.970 MHz USB
Oscar 11 19 Apr 11:15:49 11:20:12 88° 283° (WNW) 11:24:34 145.825 FM, Beacon 2401.500 USB
Sapphire 19 Apr 11:25:19 11:30:34 52° 248° (WSW) 11:35:47 437.095 MHz 1200 baud AX-25 AFSK
PANSAT 19 Apr 11:56:01 11:59:17 26° 186° (S) 12:02:33 not established
KITSAT 1 19 Apr 11:57:17 12:04:34 35° 51° (NE) 12:11:46 435.175 FM
PCSat 19 Apr 12:11:31 12:15:10 19° 255° (WSW) 12:18:48 145.825 MHz
HO-68 19 Apr 12:28:40 12:33:16 19° 301° (WNW) 12:37:53 435.675 MHz FM
Saudisat 1A 19 Apr 12:32:44 12:36:37 28° 307° (NW) 12:40:30 436.775 MHz
FUNcube-1 19 Apr 12:41:50 12:45:32 29° 288° (WNW) 12:49:17 145.950 - 145.970 MHz USB
Oscar 16 19 Apr 12:44:58 12:45:52 10° 61° (ENE) 12:46:46 437.025 USB, Beacon 2401.1428
RS-15 19 Apr 12:58:17 13:02:13 12° 7° (N) 13:06:09 29.354 - 29.394 USB, Beacon 29.352 USB
Uribyol 2 19 Apr 13:18:52 13:20:47 12° 62° (ENE) 13:22:41 436.500 FM
PANSAT 19 Apr 13:36:49 13:38:58 14° 198° (SSW) 13:41:07 not established
KITSAT 1 19 Apr 13:52:25 14:00:08 50° 250° (WSW) 14:07:48 435.175 FM
AO-27 19 Apr 13:56:11 14:00:33 28° 68° (ENE) 14:04:55 436.795 MHz FM
ITAMSAT 1 19 Apr 14:06:35 14:11:14 35° 70° (ENE) 14:15:53 435.822 SSB
Oscar 19 19 Apr 14:11:04 14:16:11 75° 75° (ENE) 14:21:20 437.125 CW, 437.150 USB
AO-Echo 19 Apr 14:14:31 14:19:10 33° 70° (ENE) 14:23:43 ?
Oscar 16 19 Apr 14:19:19 14:24:27 84° 257° (WSW) 14:29:38 437.025 USB, Beacon 2401.1428
TMSAT-1 19 Apr 14:37:59 14:40:48 15° 64° (ENE) 14:43:37 436.925 FM
Uribyol 2 19 Apr 14:54:26 14:59:35 75° 257° (WSW) 15:04:45 436.500 FM
AO-7 19 Apr 15:01:49 15:05:38 14° 51° (NE) 15:09:27 29.400 - 29.500 MHz
SO-50 19 Apr 15:10:01 15:13:21 21° 110° (ESE) 15:16:42 436.795 FM
RS-15 19 Apr 15:10:40 15:19:57 30° 42° (NE) 15:29:21 29.354 - 29.394 USB, Beacon 29.352 USB
JAS-1B 19 Apr 15:18:29 15:24:54 27° 67° (ENE) 15:30:31 435.800 - 435.900 CW/SSB
Gurwin Techsat 1B 19 Apr 15:26:40 15:31:53 63° 74° (ENE) 15:37:08 435.225 FM
OPAL 19 Apr 15:27:10 15:31:38 28° 98° (E) 15:36:03 ?
AO-27 19 Apr 15:35:24 15:39:56 30° 263° (W) 15:44:29 436.795 MHz FM
ITAMSAT 1 19 Apr 15:46:35 15:50:44 24° 264° (W) 15:54:54 435.822 SSB
ISS 19 Apr 15:46:43 15:50:03 80° 318° (NW) 15:53:24 145.800 FM
AO-Echo 19 Apr 15:53:31 15:57:53 26° 264° (W) 16:02:11 ?
Oscar 19 19 Apr 15:55:19 15:56:01 10° 270° (W) 15:56:43 437.125 CW, 437.150 USB
